GFSNE_prec_cloud_057.txt.gz
Cloud_Cover
0 0 0 0 0 0 0 0 0 6 33 0 0 0 2 5 48 80 30 5 5 2 8 50 91 100 100 100 100 100 100 99 100 100 100 100 100 100
0 5 0 0 0 0 0 0 0 0 0 0 0 0 0 0 2 5 24 5 2 3 2 80 29 100 100 100 100 100 100 100 100 100 100 100 100 100
0 11 4 0 0 0 0 0 0 0 0 0 0 0 0 0 0 0 2 5 4 5 88 100 100 99 100 100 100 100 100 94 99 71 61 100 100 100
0 0 0 0 0 0 0 0 0 0 0 0 0 0 0 0 0 0 0 1 5 25 96 100 100 100 91 99 100 100 100 99 100 100 100 99 100 100
0 0 0 0 0 0 0 0 0 0 0 0 0 0 0 0 0 0 4 5 100 100 69 50 60 98 100 99 95 84 100 100 79 28 63 100 100 100
0 0 0 0 0 0 0 0 0 0 0 0 0 0 0 0 0 0 0 1 7 94 100 100 100 47 69 96 100 100 100 100 58 42 96 100 100 100
0 0 0 0 0 0 0 0 0 3 0 0 0 0 0 0 0 0 0 0 1 99 100 98 98 39 81 98 88 100 100 100 100 100 100 100 100 100
0 0 0 0 0 0 0 0 0 1 5 0 0 2 0 0 0 0 0 0 2 2 0 0 32 92 100 100 100 100 100 98 100 100 100 66 100 100
0 0 0 0 0 0 0 1 0 0 1 5 5 0 0 0 0 4 0 0 1 3 13 0 61 17 8 82 100 100 100 100 100 100 100 34 35 99
0 0 0 0 0 0 2 4 3 4 1 0 3 5 0 0 5 0 5 13 16 40 95 9 1 1 0 0 13 35 28 38 100 100 100 100 97 100
0 0 0 0 0 0 0 1 5 20 5 3 0 0 0 0 7 59 42 55 26 33 87 75 34 46 0 0 0 0 43 87 92 100 100 62 24 100
0 0 0 0 0 0 0 1 0 4 52 34 4 2 47 10 23 6 30 73 100 100 75 100 100 78 96 26 0 0 15 92 53 33 35 5 92 86
0 0 0 0 2 1 1 0 0 10 0 4 5 29 91 65 26 83 49 19 60 61 51 77 64 98 11 80 60 4 36 58 0 22 37 5 66 86
0 0 0 0 0 3 9 5 5 47 3 29 72 50 35 83 48 33 14 69 18 22 5 0 10 6 25 14 5 0 1 0 4 19 87 99 98 100
0 10 8 0 0 65 38 5 73 49 33 95 78 93 34 68 61 100 25 5 5 5 0 0 0 0 0 1 10 5 42 8 74 23 36 100 100 100
0 0 0 17 95 68 24 37 14 10 97 99 97 100 75 51 97 58 15 5 5 0 0 0 0 0 0 0 0 0 83 100 100 100 100 100 100 100
0 0 0 0 0 4 27 77 99 80 89 95 90 71 93 100 48 81 5 0 0 0 0 0 0 2 4 38 5 5 87 100 100 100 100 100 100 100
3 0 0 0 7 22 23 57 41 44 99 100 77 100 100 94 54 2 0 0 0 0 0 0 5 99 89 56 16 13 97 100 100 100 100 100 100 100
40 5 6 14 25 39 6 75 100 100 90 99 98 45 99 96 5 0 0 0 0 0 0 0 0 9 10 5 5 20 94 100 100 100 100 100 100 100
44 28 41 64 100 85 65 92 92 79 100 86 98 100 51 6 0 3 0 0 0 2 0 5 48 65 58 66 57 54 58 98 84 99 100 100 100 100
63 99 98 100 81 51 89 76 100 88 98 82 100 37 37 1 13 14 2 1 17 3 12 22 43 12 21 92 69 83 94 82 75 33 99 100 100 100
77 99 100 94 60 92 100 100 100 100 100 100 71 16 32 61 14 18 31 52 52 8 3 15 0 54 99 100 100 100 53 83 100 100 97 100 100 100
100 100 98 70 89 46 98 100 100 100 100 50 61 94 100 100 66 97 57 32 22 0 13 21 27 66 99 95 15 80 26 84 100 100 99 100 100 100

GFSNE_prec_cloud_060.txt.gz
Cloud_Cover
0 0 0 0 2 0 0 0 0 0 74 0 0 0 0 0 0 0 0 0 0 2 5 16 18 100 100 100 100 100 100 100 100 100 100 96 100 100
0 0 0 0 0 10 0 0 0 0 0 0 0 0 0 0 0 0 0 0 0 0 3 70 67 96 100 100 100 100 100 100 97 100 100 33 96 100
0 0 0 0 0 0 0 0 0 0 0 0 0 0 0 0 0 0 2 2 0 5 79 5 14 27 84 100 100 100 100 18 100 100 100 11 57 95
0 0 0 0 0 0 0 0 0 0 0 0 0 0 0 0 0 0 1 10 5 12 94 89 67 100 100 100 67 58 100 100 100 100 100 46 37 68
0 0 0 0 0 0 0 0 0 0 0 0 0 0 0 0 0 0 0 1 16 75 100 91 100 100 93 32 78 100 100 100 100 100 100 100 100 96
0 0 0 0 0 0 0 0 0 0 0 0 0 0 0 0 0 0 0 0 1 70 69 99 100 100 100 100 100 100 100 100 98 99 100 100 100 100
0 0 0 0 0 0 0 0 0 0 0 0 0 20 4 0 0 0 3 4 5 27 5 5 2 20 7 7 6 23 44 100 100 100 100 100 100 44
0 0 0 0 0 0 0 0 0 4 5 5 4 0 0 11 6 0 0 0 17 7 95 4 5 5 6 0 28 100 99 23 13 24 67 97 6 99
0 0 0 0 0 0 0 0 0 0 5 5 19 25 4 0 0 4 0 0 0 76 100 5 1 0 5 5 5 3 3 1 3 7 56 68 66 84
0 0 0 0 0 0 0 0 0 0 2 5 67 54 82 45 5 1 0 0 0 5 83 80 95 94 64 6 5 5 2 0 1 0 2 5 66 15
0 0 0 0 0 0 0 0 0 0 0 2 14 62 82 89 46 52 2 4 25 2 5 54 100 100 100 71 2 5 5 7 18 28 36 0 5 10
0 0 0 0 0 0 0 0 0 0 0 4 5 5 41 5 61 41 16 13 46 90 5 86 9 95 100 10 0 0 5 5 0 0 54 100 87 54
0 0 0 0 0 0 0 0 0 3 2 5 5 5 6 39 66 37 30 25 0 35 10 59 67 75 30 26 0 0 0 4 6 27 2 70 62 99
0 0 0 0 0 0 0 0 0 37 0 0 0 1 5 5 13 20 5 2 96 18 63 100 43 0 0 0 0 1 8 4 21 81 100 100 100 100
0 10 12 0 0 50 0 0 58 4 0 19 81 47 99 27 6 5 5 100 53 80 96 8 0 0 0 0 0 3 95 100 59 100 100 100 100 100
0 2 0 0 90 18 8 22 0 5 5 15 82 16 96 44 16 7 100 15 58 16 42 18 0 0 0 0 0 5 21 99 100 100 100 100 100 100
0 0 2 25 32 61 18 0 0 2 5 5 86 82 14 5 9 98 15 10 82 100 34 0 0 0 1 0 0 0 47 98 48 90 100 100 100 100
3 13 72 100 100 58 55 18 0 16 5 45 42 35 42 41 100 100 100 100 100 42 0 0 0 0 33 9 57 0 46 100 43 86 91 100 100 100
5 99 42 99 98 33 75 44 31 65 67 98 99 100 100 38 85 100 100 76 5 0 35 0 0 0 0 0 2 80 31 98 98 98 100 100 100 100
100 100 78 70 6 25 5 30 38 8 64 48 52 21 75 69 57 8 4 4 0 0 0 0 0 0 0 0 0 20 68 32 94 100 100 100 99 97
100 100 98 100 97 47 33 98 100 100 100 55 98 94 99 47 94 1 0 0 17 0 0 0 0 0 0 0 0 2 33 100 61 100 94 99 100 100
91 100 100 100 100 100 99 69 100 100 100 100 100 100 10 99 79 30 0 1 6 0 0 0 0 0 0 0 21 95 6 3 46 100 100 100 100 100
97 34 99 87 100 100 100 90 100 100 100 100 87 100 77 88 28 0 34 4 51 0 0 0 0 4 5 5 10 7 0 9 18 99 90 100 100 100

GFSNE_prec_cloud_063.txt.gz
Cloud_Cover
0 0 0 0 0 0 0 0 0 0 0 0 0 0 0 0 0 1 0 0 0 0 1 5 26 96 100 100 100 100 100 98 55 80 100 100 87 100
0 0 0 0 0 0 0 0 0 0 0 0 0 0 0 0 0 0 3 4 5 4 2 5 5 78 100 100 100 100 100 100 100 100 100 100 80 92
0 0 0 0 0 0 0 0 0 0 0 0 0 0 0 0 0 0 0 5 65 64 8 5 94 100 88 100 100 100 100 100 100 100 100 100 100 100
0 0 0 0 0 0 0 0 0 0 0 0 0 0 0 0 0 0 0 0 9 97 94 98 100 100 91 56 100 100 100 76 30 79 14 89 86 100
0 0 0 0 0 0 0 0 0 0 0 0 0 0 4 2 0 0 0 0 0 1 5 83 93 58 98 100 100 100 94 15 61 100 77 84 96 97
0 0 0 0 0 0 0 0 0 0 0 0 0 0 0 0 3 5 0 0 0 0 4 5 5 5 5 8 32 39 58 5 5 12 53 50 96 70
0 0 0 0 0 0 0 0 0 0 0 1 0 0 3 0 0 0 1 0 0 0 0 13 95 90 35 5 5 19 45 53 6 0 0 0 3 16
0 0 0 0 0 0 0 0 0 0 0 5 4 5 5 5 5 5 4 0 8 0 1 4 5 33 89 97 14 5 5 5 5 41 78 4 1 0
0 0 0 0 0 0 0 0 0 0 5 5 5 13 70 94 100 100 58 5 5 88 18 7 0 5 40 45 5 5 2 0 0 0 4 0 0 0
0 0 0 0 0 0 0 0 0 0 1 0 0 1 0 34 100 85 47 96 12 8 99 48 5 1 5 5 4 0 0 0 0 0 1 5 14 9
0 0 0 0 0 0 0 0 0 0 0 0 0 0 0 6 60 78 87 100 100 14 3 7 5 5 14 34 2 0 0 0 0 0 5 50 58 16
0 0 0 0 0 0 0 0 0 0 0 0 0 1 28 3 3 2 5 93 45 68 5 40 46 100 99 5 4 0 0 0 18 6 100 93 100 100
0 0 0 0 0 0 0 0 0 0 0 0 0 0 0 0 0 5 17 43 22 27 21 29 46 98 98 100 0 0 0 2 24 75 96 100 100 100
0 0 0 0 0 0 0 0 0 0 0 0 0 0 0 0 3 10 20 53 51 70 49 6 5 58 99 32 0 0 0 5 8 61 100 100 100 100
0 0 0 0 0 0 0 0 2 7 5 0 0 0 2 28 84 6 21 24 52 93 100 13 9 100 89 1 0 10 18 4 25 83 100 100 100 100
0 4 0 0 20 17 0 4 5 5 5 5 5 3 5 42 17 40 33 35 24 18 58 83 100 13 0 0 0 0 10 26 25 17 99 100 100 100
0 0 0 0 0 0 6 14 5 13 44 10 5 8 13 11 5 5 12 46 16 16 19 74 4 0 17 0 0 1 9 16 37 50 50 100 100 100
8 0 0 0 0 0 51 36 26 5 91 18 88 37 18 28 52 71 46 9 7 44 44 4 5 2 8 4 55 6 14 18 69 57 77 97 100 100
0 0 0 0 0 3 5 5 5 1 26 71 100 100 100 99 99 72 26 55 20 1 0 0 2 22 0 0 4 72 12 45 76 86 97 100 100 100
5 5 1 4 1 1 0 0 8 19 100 100 100 100 100 100 51 59 88 84 20 5 3 0 0 0 0 0 1 9 100 13 8 61 100 100 100 96
66 59 99 100 100 100 100 100 100 65 100 100 100 96 100 97 92 100 100 100 100 28 8 5 5 5 2 0 6 39 3 0 15 11 68 66 55 92
89 69 100 100 100 100 100 100 100 87 100 100 61 99 98 100 100 100 100 100 100 100 68 80 6 4 5 5 2 4 28 1 5 57 48 48 54 59
27 100 100 100 100 100 100 100 100 100 100 100 93 91 100 100 100 100 100 100 100 100 100 91 76 97 5 0 5 9 11 20 19 18 4 11 64 79

GFSNE_prec_cloud_069.txt.gz
Cloud_Cover
0 0 0 0 0 0 0 0 0 0 0 0 0 0 0 0 0 0 0 5 5 7 80 5 26 5 10 71 81 100 100 100 80 59 70 99 100 100
0 0 0 0 0 0 0 0 0 0 0 0 0 0 0 0 0 0 0 0 23 58 99 100 92 93 81 100 98 94 73 5 5 4 6 16 40 29
0 0 0 0 0 0 0 0 0 0 0 0 0 0 0 0 0 0 0 0 0 0 0 8 6 5 4 3 19 26 5 1 0 1 0 0 0 1
0 0 0 0 0 0 0 0 0 0 0 0 4 5 0 0 0 0 0 0 0 0 0 0 0 5 5 5 5 5 5 5 5 9 0 0 0 1
0 0 0 0 0 0 0 0 0 0 0 0 0 5 5 0 0 2 5 4 5 0 4 4 5 2 4 0 1 4 5 5 13 0 0 0 1 21
0 0 0 0 0 0 0 0 0 0 0 2 1 0 1 0 0 0 0 5 5 0 1 0 2 4 0 5 0 4 4 1 0 5 0 0 15 33
0 0 0 0 0 0 0 0 0 0 0 2 9 5 0 0 0 0 6 1 36 5 3 3 5 5 0 5 3 5 0 1 2 16 0 68 100 100
0 0 0 0 0 0 0 0 0 0 0 5 0 3 0 5 0 0 0 0 17 4 0 5 3 3 4 0 5 4 0 5 5 2 0 100 100 100
0 0 0 0 0 0 0 3 0 0 0 0 0 5 3 5 3 0 0 7 11 0 3 29 0 14 15 4 3 0 0 5 4 18 72 100 100 100
0 0 0 0 0 0 0 0 0 0 0 2 13 5 5 0 3 1 0 1 17 4 64 100 3 68 9 0 0 0 0 5 0 79 100 100 100 100
0 0 0 0 0 1 0 0 0 0 3 5 5 4 0 4 2 0 12 73 22 1 9 100 37 100 5 6 1 5 3 1 0 61 99 97 100 100
0 0 0 0 0 0 1 0 0 0 0 4 36 28 47 8 92 70 8 22 34 38 0 94 100 95 31 11 2 0 0 0 0 27 100 100 100 100
0 0 0 0 0 12 24 0 0 0 0 4 23 55 5 5 5 41 93 92 60 72 64 100 99 97 26 4 0 0 0 2 6 11 100 97 100 100
0 0 0 0 0 3 35 14 53 89 47 72 88 46 16 13 8 35 77 97 23 40 100 99 94 91 28 0 0 1 3 5 12 21 26 100 79 100
0 0 0 0 0 13 10 5 64 99 92 31 77 100 98 98 91 29 5 88 64 97 72 100 97 99 38 10 0 0 2 2 19 28 18 100 100 100
0 3 0 4 1 8 83 100 100 100 100 100 32 8 100 100 100 100 100 99 100 100 99 91 91 65 64 5 4 1 3 5 33 99 43 100 100 100
6 41 67 68 65 66 96 100 100 100 100 100 100 100 72 100 100 100 100 100 100 100 100 95 56 89 100 100 5 0 0 1 19 31 20 100 100 100
90 100 100 100 96 52 72 98 100 100 100 100 100 100 96 100 100 100 100 100 92 100 100 100 96 100 100 100 90 12 13 8 24 36 96 100 100 99
40 98 100 100 100 99 66 70 100 100 100 100 100 100 100 100 100 100 100 100 100 100 100 100 100 100 100 100 96 55 4 27 50 99 95 100 100 100
99 100 100 100 80 66 61 100 100 100 40 100 100 100 100 100 100 100 100 100 100 100 100 100 100 100 100 100 37 8 100 22 26 82 100 100 98 97
100 100 100 100 90 76 38 100 100 100 100 100 100 100 100 100 100 100 100 100 100 100 100 100 100 100 100 100 100 100 24 100 47 20 100 100 100 100
99 100 100 100 100 91 99 100 100 100 100 100 100 100 100 100 100 100 100 100 100 100 100 100 100 100 100 100 100 100 100 13 3 18 31 16 48 73
100 100 100 100 100 100 84 100 100 100 100 100 100 100 100 100 100 100 100 100 100 100 100 100 100 100 100 100 100 100 100 67 22 18 7 88 100 88

GFSNE_prec_cloud_072.txt.gz
Cloud_Cover
0 0 0 0 0 0 0 0 0 0 0 0 0 0 0 0 0 0 0 0 5 91 71 29 98 92 100 99 95 64 6 6 54 5 83 19 14 0
0 0 0 0 0 0 0 0 0 0 0 0 0 0 0 1 0 0 0 0 0 1 0 4 5 5 5 5 5 6 5 68 48 5 5 1 0 0
0 0 0 0 0 0 0 0 0 0 0 0 0 0 0 3 5 6 7 4 2 5 0 1 5 5 5 24 61 55 10 5 5 4 3 0 0 0
0 0 0 0 0 0 0 0 0 0 0 0 0 1 0 5 1 5 24 70 41 5 4 5 5 5 2 3 4 5 5 5 2 8 0 2 3 7
0 0 0 0 0 0 0 0 0 0 0 0 0 0 0 0 0 0 1 0 6 88 61 5 3 2 5 5 4 5 5 1 5 4 0 28 48 59
0 0 0 0 0 0 0 0 0 0 0 2 0 5 4 3 0 0 0 0 0 0 3 5 18 12 1 0 5 5 3 8 8 0 6 100 100 100
0 0 0 0 0 0 0 0 0 0 0 0 5 5 4 5 4 3 6 5 20 5 0 3 5 8 19 0 0 0 4 5 2 0 86 100 100 100
0 0 0 0 4 1 0 0 0 0 0 0 1 1 1 0 0 5 5 7 49 21 5 5 5 5 13 3 0 0 0 0 0 43 85 100 100 100
0 0 0 0 4 0 5 16 16 0 8 0 1 1 0 5 0 1 4 7 18 12 53 39 18 5 4 1 4 4 0 0 2 82 3 61 100 100
0 0 0 0 0 0 0 0 0 0 0 0 5 5 0 0 5 5 5 11 33 5 13 87 2 0 5 13 3 0 0 0 0 73 88 100 100 100
0 0 0 0 0 11 0 0 0 0 0 7 5 5 3 0 10 11 8 52 30 5 4 26 25 7 98 11 9 0 0 0 0 44 99 100 100 100
0 0 0 0 0 19 0 0 0 1 2 5 5 35 53 6 27 5 5 28 38 51 13 9 26 81 42 50 0 0 0 0 0 0 15 92 100 99
0 0 0 1 2 25 26 0 5 7 5 5 5 22 7 5 5 8 5 10 61 100 99 83 99 100 83 100 20 0 0 0 0 0 0 2 49 92
0 0 0 0 18 20 40 9 19 94 5 4 4 3 92 100 83 99 100 24 54 28 60 41 100 100 99 99 96 6 3 2 2 0 34 68 12 64
0 0 0 0 0 63 19 10 71 81 100 100 100 100 90 23 100 100 100 31 13 33 61 85 100 100 100 100 100 77 6 2 3 6 45 85 99 100
0 1 0 8 9 4 13 23 96 100 100 76 96 100 100 100 100 100 100 100 100 58 92 100 100 100 100 100 100 100 100 81 42 76 47 75 66 86
26 22 34 53 61 47 55 44 10 95 100 100 100 100 100 100 100 100 100 100 100 100 100 100 100 100 100 100 99 97 100 100 100 100 100 100 100 100
87 88 100 95 100 100 100 100 100 48 30 100 100 100 100 100 100 100 100 100 100 100 100 100 100 100 100 100 100 100 100 100 100 100 100 100 100 100
100 100 100 100 100 76 100 100 91 51 77 100 100 100 100 100 100 100 100 100 100 100 100 100 100 100 100 100 100 100 100 100 100 100 100 100 100 100
100 100 99 100 98 100 100 100 100 90 48 67 100 100 100 100 100 100 100 100 100 100 100 100 100 99 100 100 100 100 100 100 100 100 100 100 100 100
100 100 100 93 97 100 100 100 100 100 79 98 100 100 99 86 100 99 99 100 97 98 82 100 100 100 100 100 100 100 100 100 100 100 100 100 100 100
100 99 62 98 100 100 100 100 100 100 100 100 100 100 100 83 100 100 100 100 100 100 100 100 100 100 100 100 100 100 100 100 100 100 100 100 100 100
100 99 98 100 100 100 100 100 100 100 100 100 100 100 100 100 100 100 100 100 100 100 100 100 100 100 100 100 100 100 100 100 100 97 100 100 100 100

GFSNE_prec_cloud_075.txt.gz
Cloud_Cover
0 0 0 0 0 0 0 0 0 0 0 0 0 0 0 0 0 0 0 0 0 0 5 1 2 0 4 5 5 6 99 12 5 5 0 0 0 13
0 0 0 0 0 0 0 0 0 0 0 0 0 0 2 4 5 4 3 4 4 5 5 5 5 6 5 5 5 7 5 0 5 2 0 0 0 12
0 0 0 0 0 0 0 0 0 0 0 0 0 0 0 0 0 1 5 34 86 55 77 5 5 5 40 86 8 3 0 5 5 0 0 0 0 29
0 0 0 0 0 0 0 0 0 0 0 0 0 0 0 0 0 0 1 4 4 6 7 0 5 6 4 2 0 0 4 5 2 0 0 8 56 96
0 0 0 0 0 0 0 0 0 0 0 5 4 3 3 0 4 2 0 0 0 0 5 0 0 1 0 0 0 4 5 3 0 0 24 87 92 100
0 0 0 0 0 0 0 0 0 0 5 3 0 0 2 4 5 4 4 3 0 5 2 2 18 14 0 0 0 0 0 0 0 0 36 62 98 100
0 0 0 0 0 0 0 0 0 0 2 0 0 0 0 0 5 5 0 0 0 1 0 0 0 16 53 3 1 0 0 0 0 0 0 43 75 100
0 0 0 0 10 1 0 0 0 0 0 0 0 0 0 0 5 5 4 0 5 5 1 0 0 17 26 0 25 0 0 0 0 2 8 100 100 100
0 0 0 0 0 0 40 25 34 2 5 0 0 0 0 0 5 5 2 5 5 5 5 10 1 32 6 3 0 0 0 0 0 0 0 72 100 100
0 0 0 0 0 0 0 0 0 0 2 1 0 0 0 0 5 5 7 9 8 8 23 14 13 37 9 0 4 1 0 0 0 1 4 4 33 91
0 0 0 0 0 0 0 0 0 0 0 0 0 0 0 0 32 5 4 5 5 5 11 6 7 47 39 44 7 79 6 5 9 16 53 100 69 16
0 0 0 0 0 0 3 2 2 1 0 0 0 35 55 3 41 84 4 5 4 0 2 5 49 12 30 31 39 97 50 38 100 100 100 100 100 100
0 0 0 0 2 24 26 5 5 7 4 4 0 5 7 5 5 4 32 27 0 1 5 5 20 84 58 41 90 100 98 46 53 80 94 97 96 100
0 0 0 0 7 32 52 5 5 70 5 6 6 91 98 80 82 100 50 50 7 4 8 42 13 98 99 56 92 27 32 80 29 100 92 94 100 100
0 0 0 0 14 66 58 5 73 7 94 100 100 89 29 99 100 100 100 100 37 61 57 25 92 86 80 65 56 91 94 97 80 66 20 78 72 100
0 4 0 9 9 12 21 34 1 3 44 100 100 91 98 100 100 100 100 100 42 90 98 70 100 100 100 93 64 66 87 100 100 38 100 63 90 99
0 6 23 50 70 73 57 57 61 27 26 10 21 97 100 100 100 100 100 96 100 44 33 100 82 86 98 100 100 58 72 77 100 100 100 100 52 100
56 66 45 43 80 92 74 100 97 83 19 20 4 68 100 100 100 100 100 100 91 34 95 70 87 63 69 25 100 100 54 70 33 58 94 46 7 21
68 94 80 100 100 98 88 100 100 96 100 77 1 5 33 100 100 100 100 100 99 24 70 26 100 99 58 62 64 100 100 100 100 29 100 6 32 25
100 75 91 96 95 94 85 65 100 100 100 100 100 100 100 100 100 100 100 100 90 80 68 58 87 91 34 27 85 98 100 100 100 100 100 72 76 58
100 100 68 70 100 100 86 72 100 100 100 100 100 100 100 100 100 100 100 100 78 87 100 100 100 99 100 100 97 92 55 96 100 100 100 88 92 58
100 100 42 48 52 98 100 100 100 100 92 100 100 100 100 100 100 100 100 100 100 100 100 100 100 90 100 100 100 100 100 100 100 100 100 100 100 100
100 100 93 98 90 80 98 100 100 100 100 100 100 100 100 100 100 100 100 100 100 100 100 100 100 100 100 100 100 100 100 100 100 100 99 100 100 100